Tracking 30298 objects as of 27-Apr-2025
HD Live streaming from Space Station
objects crossing your sky now

IRIDIUM 33 DEB

Track IRIDIUM 33 DEB now!
10-day predictions


NORAD ID: 46965
Int'l Code: 1997-051ABX
Perigee: 689.4 km
Apogee: 721.5 km
Inclination: 86.3 °
Period: 98.7 minutes
Semi major axis: 7076 km
RCS: Unknown
Launch date: September 14, 1997
Source: United States (US)
Launch site: TYURATAM MISSILE AND SPACE COMPLEX (TTMTR)

Note: This is SATELLITE DEBRIS
Your satellite tracking list
Your tracking list is empty




NASA's NSSDC Master Catalog

Two Line Element Set (TLE):
1 46965U 97051ABX 25116.35984586  .00007860  00000-0  16856-2 0  9994
2 46965  86.3332  82.6638 0022685  34.3328 124.1684 14.58401831589087
Source of the keplerian elements: AFSPC